[[{"header":{"parameterUnit":"m.s-1","parameterCategory":1,"la1":30.2991,"la2":30.254,"lo1":-89.0895,"lo2":-89.0444,"dy":0.0017,"dx":0.0017,"nx":28,"ny":28,"refTime":"2023-09-07T03:00:00:Z","depth":0,"parameterNumber":2,"parameterNumberName":"U-component_of_WINDS"},"data":[0,0,0,0,0,0,0,0,0,0,0,0,0,0,0,0,0,0,0,0,0,0,0,0,0,0,0,0,0,0,0,0,0,0,0,0,0,0,0,0,0,0,0,0,0,0,0,0,0,0,0,0,0,0,0,0,0,0,2.2844,2.2845,0,2.2876,2.2876,2.2877,2.2895,2.2895,2.2895,2.2895,2.2927,2.2928,2.2929,0,0,0,0,0,0,0,0,0,0,0,0,0,2.28,2.28,2.2844,2.2845,2.2845,2.2876,2.2876,2.2877,2.2895,2.2895,2.2895,2.2895,2.2927,2.2928,2.2929,0,0,0,0,0,0,0,0,0,0,0,0,0,2.2824,2.2801,2.2844,2.2858,2.2859,2.2876,2.2876,2.2877,2.2895,2.2895,2.2895,2.2895,2.2927,2.2928,2.2929,2.2934,0,0,2.2933,2.2933,0,0,0,0,0,0,0,0,2.2823,2.2826,2.2855,2.2857,2.2859,2.2882,2.2873,2.2896,2.2895,2.2881,2.2895,2.2895,2.2912,2.2914,2.292,2.2936,2.2937,2.2933,2.2933,2.2934,2.2934,0,0,0,0,0,0,0,2.2821,2.2824,2.2857,2.2856,2.2858,2.2863,2.2866,2.2877,2.2896,2.2883,2.2884,2.2888,2.2913,2.2919,2.2921,2.2938,2.2933,2.2934,2.2934,2.2935,2.2961,2.2961,0,0,0,0,0,0,2.2817,2.2823,2.2856,2.2858,2.2841,2.2863,2.2867,2.2874,2.2896,2.2899,2.2887,2.2888,2.2917,2.292,2.2922,2.2931,2.2934,2.2935,2.2936,2.2961,2.2961,2.2961,0,0,0,0,0,0,2.2816,2.282,2.2855,2.2841,2.2846,2.2864,2.2872,2.2875,2.2881,2.2899,2.2903,2.289,2.2917,2.292,2.2931,2.2932,2.2936,2.2937,2.2961,2.2961,2.2961,2.2947,0,0,0,0,0,0,2.2815,2.2819,2.2821,2.2841,2.2846,2.2863,2.2872,2.2875,2.2883,2.2884,2.2903,2.2906,2.2917,2.293,2.2933,2.2934,2.2938,2.2961,2.2961,2.2961,2.2947,2.2946,2.2946,0,0,0,0,0,2.2813,2.2816,2.2821,2.2825,2.2849,2.2863,2.2866,2.2879,2.2883,2.2885,2.2897,2.2905,2.2931,2.2931,2.2934,2.2935,2.2961,2.2961,2.2961,2.2948,2.2947,2.2946,0,0,0,0,0,0,2.2796,2.2819,2.2825,2.2834,2.2847,2.2866,2.2869,2.2878,2.2889,2.289,2.2906,2.291,2.292,2.2929,2.2927,2.2942,2.2947,2.2948,2.2936,2.2935,2.2934,2.2932,2.2939,0,0,0,0,0,2.2793,2.2802,2.2822,2.2828,2.2834,2.2851,2.2857,2.2866,2.288,2.2885,2.2898,2.2911,2.2922,2.2929,2.294,2.2949,2.2954,2.2952,2.2951,2.295,2.295,2.2957,2.2956,2.296,2.296,2.296,0,0,2.2787,2.2801,2.2806,2.2825,2.2836,2.2845,2.2855,2.2864,2.2872,2.2887,2.2898,2.2908,2.2923,2.2933,2.2939,2.2941,2.295,2.295,2.2949,2.295,2.2957,2.2956,2.2956,2.296,2.296,2.296,0,0,2.2782,2.2793,2.28,2.2811,2.2827,2.2838,2.284,2.2859,2.2866,2.2878,2.289,2.2899,2.2917,2.2928,2.2936,2.2937,2.2945,2.294,2.2935,2.2941,2.294,2.294,2.2941,2.2941,2.294,2.294,2.294,0,2.2773,2.2788,2.2802,2.2812,2.282,2.2834,2.2842,2.2852,2.2871,2.2876,2.2879,2.2904,2.2915,2.2929,2.2929,2.2935,2.2937,2.2938,2.2939,2.2939,2.2939,2.294,2.294,2.2939,2.2939,2.294,2.294,0,2.2776,2.2786,2.279,2.2809,2.2818,2.2826,2.2842,2.2849,2.2858,2.2869,2.2882,2.2896,2.2911,2.2915,2.2923,2.2929,2.2931,2.2936,2.2941,2.2938,2.2939,2.294,2.2938,2.2939,2.2939,2.2939,0,0,2.276,2.2787,2.2789,2.2798,2.2818,2.2826,2.2835,2.285,2.2857,2.287,2.2878,2.2894,2.29,2.2909,2.2919,2.2924,2.2924,2.2929,2.293,2.2928,2.2933,2.2929,2.2929,2.293,2.293,2.293,2.2932,0,2.2758,2.2775,2.2789,2.2802,2.2812,2.2826,2.2835,2.2848,2.2859,2.2869,2.2881,2.2893,2.2899,2.2905,2.291,2.2923,2.2926,2.2923,2.2938,2.2939,2.2934,2.293,2.2925,2.2926,2.2933,2.2933,2.2933,0,2.2757,2.2771,2.2784,2.2804,2.2809,2.2816,2.2832,2.2841,2.2857,2.2864,2.2875,2.2886,2.2897,2.2901,2.2917,2.2915,2.2922,2.2929,2.293,2.2932,2.2936,2.2932,2.2927,2.2927,2.2934,2.2933,2.2933,0,2.2745,2.2766,2.2777,2.2785,2.2808,2.2813,2.2823,2.2838,2.2847,2.2861,2.2866,2.2881,2.2889,2.29,2.2914,2.2916,2.2929,2.2934,2.2936,2.2936,2.2938,2.2938,2.2934,2.2942,2.2942,2.2942,2.2942,0,2.2741,2.2749,2.2772,2.2779,2.2788,2.2805,2.2814,2.2825,2.2839,2.2849,2.2862,2.2871,2.2889,2.29,2.2912,2.2923,2.2927,2.2933,2.2936,2.2932,2.2932,2.2937,2.2938,2.2942,2.2942,2.2942,2.2942,0,2.2729,2.2744,2.2758,2.2779,2.2785,2.2791,2.2809,2.2817,2.2829,2.2841,2.2845,2.2863,2.2877,2.2893,2.2912,2.2919,2.293,2.2935,2.2925,2.2927,2.2928,2.2928,2.2929,2.293,2.2936,2.2936,2.2936,0,2.2725,2.2732,2.2754,2.2762,2.2772,2.2784,2.2793,2.2809,2.2818,2.2837,2.2843,2.2858,2.287,2.2892,2.2907,2.2922,2.2927,2.2926,2.2929,2.2925,2.2927,2.2927,2.2928,2.2925,2.2925,2.2925,2.2925,0,2.2718,2.2726,2.2738,2.2754,2.2765,2.2778,2.2791,2.2797,2.2816,2.2826,2.284,2.285,2.287,2.2885,2.2902,2.2912,2.2922,2.2924,2.2925,2.2921,2.2916,2.2919,2.2923,2.2924,2.2924,2.2924,2.2924,2.2924,2.271,2.2717,2.2735,2.2749,2.2761,2.2773,2.2782,2.2795,2.2808,2.2825,2.2835,2.2849,2.2866,2.289,2.29,2.2912,2.2915,2.2916,2.2917,2.2917,2.2916,2.2914,2.2915,2.2915,2.2915,2.2915,2.2915,0,2.2704,2.2716,2.2729,2.2748,2.2759,2.2768,2.2784,2.2792,2.2805,2.282,2.2833,2.285,2.2865,2.2882,2.2898,2.2904,2.2909,2.2908,2.2908,2.291,2.2912,2.291,2.2904,2.2904,2.2904,2.2904,2.2904,2.2904,2.2702,2.2715,2.2725,2.2744,2.2756,2.2771,2.2779,2.2791,2.2803,2.2822,2.2834,2.2846,2.2861,2.2879,2.2893,2.2898,2.2903,2.2901,2.2907,2.2909,2.291,2.2911,2.2908,2.2902,2.2902,2.2903,2.2903,2.2903]},{"header":{"parameterUnit":"m.s-1","parameterCategory":1,"la1":30.2991,"la2":30.254,"lo1":-89.0895,"lo2":-89.0444,"dy":0.0017,"dx":0.0017,"nx":28,"ny":28,"refTime":"2023-09-07T03:00:00:Z","depth":0,"parameterNumber":3,"parameterNumberName":"V-component_of_WINDS"},"data":[0,0,0,0,0,0,0,0,0,0,0,0,0,0,0,0,0,0,0,0,0,0,0,0,0,0,0,0,0,0,0,0,0,0,0,0,0,0,0,0,0,0,0,0,0,0,0,0,0,0,0,0,0,0,0,0,0,0,0.2861,0.2861,0,0.2882,0.2882,0.2882,0.2892,0.2891,0.2891,0.2891,0.2913,0.2914,0.2914,0,0,0,0,0,0,0,0,0,0,0,0,0,0.2828,0.2828,0.2861,0.2861,0.2861,0.2881,0.2882,0.2882,0.2892,0.2891,0.2891,0.2891,0.2913,0.2914,0.2914,0,0,0,0,0,0,0,0,0,0,0,0,0,0.2845,0.2828,0.2861,0.2868,0.2869,0.2881,0.2882,0.2882,0.2892,0.2891,0.2891,0.2891,0.2913,0.2913,0.2914,0.2921,0,0,0.2917,0.2917,0,0,0,0,0,0,0,0,0.2844,0.2846,0.2867,0.2868,0.2869,0.2884,0.2878,0.2895,0.2892,0.2883,0.2891,0.2891,0.2903,0.2905,0.2909,0.2922,0.2922,0.2917,0.2918,0.2918,0.2918,0,0,0,0,0,0,0,0.2843,0.2845,0.2869,0.2867,0.2868,0.287,0.2873,0.2881,0.2893,0.2884,0.2885,0.2887,0.2904,0.2908,0.291,0.2923,0.2917,0.2918,0.2918,0.2919,0.294,0.294,0,0,0,0,0,0,0.284,0.2844,0.2868,0.287,0.2856,0.2871,0.2874,0.2879,0.2893,0.2895,0.2887,0.2887,0.2907,0.2909,0.291,0.2917,0.2918,0.2919,0.2919,0.2939,0.294,0.294,0,0,0,0,0,0,0.2839,0.2842,0.2867,0.2857,0.286,0.2872,0.2878,0.2879,0.2884,0.2895,0.2897,0.2889,0.2907,0.2909,0.2917,0.2918,0.2919,0.292,0.2939,0.2939,0.294,0.2932,0,0,0,0,0,0,0.2838,0.2842,0.2845,0.2857,0.2861,0.2874,0.2878,0.288,0.2885,0.2886,0.2898,0.29,0.2907,0.2916,0.2918,0.292,0.2921,0.2939,0.2939,0.294,0.2932,0.2932,0.2932,0,0,0,0,0,0.2837,0.2842,0.2845,0.2848,0.2865,0.2875,0.2877,0.2884,0.2885,0.2888,0.2895,0.29,0.2918,0.2917,0.292,0.2921,0.2939,0.2939,0.294,0.2933,0.2932,0.2932,0,0,0,0,0,0,0.2831,0.2844,0.2847,0.2856,0.2864,0.2876,0.288,0.2884,0.2892,0.2892,0.2901,0.2904,0.2911,0.2917,0.2916,0.2927,0.2929,0.293,0.2923,0.2922,0.2922,0.292,0.2922,0,0,0,0,0,0.283,0.2837,0.2849,0.2855,0.2859,0.2869,0.2873,0.2878,0.2887,0.289,0.2898,0.2906,0.2913,0.2918,0.2926,0.2933,0.2935,0.2935,0.2935,0.2934,0.2935,0.2938,0.2937,0.294,0.294,0.294,0,0,0.2829,0.2837,0.2842,0.2854,0.2861,0.2867,0.2872,0.2879,0.2884,0.2892,0.29,0.2905,0.2915,0.2922,0.2926,0.2927,0.2935,0.2935,0.2934,0.2935,0.2938,0.2937,0.2937,0.294,0.294,0.294,0,0,0.2831,0.2838,0.2844,0.2851,0.286,0.2866,0.2868,0.2879,0.2883,0.2891,0.2896,0.2902,0.2915,0.2921,0.2926,0.2928,0.2932,0.293,0.2928,0.293,0.293,0.293,0.293,0.293,0.293,0.293,0.293,0,0.2829,0.2839,0.2847,0.2853,0.2858,0.2865,0.287,0.2876,0.2888,0.2891,0.2892,0.2907,0.2914,0.2923,0.2923,0.2927,0.2928,0.2929,0.293,0.293,0.293,0.2929,0.2929,0.293,0.293,0.293,0.293,0,0.2836,0.2843,0.2846,0.2856,0.2862,0.2868,0.2876,0.288,0.2884,0.289,0.2897,0.2905,0.2914,0.2916,0.2921,0.2925,0.2925,0.2928,0.293,0.2929,0.2929,0.2929,0.2929,0.2929,0.293,0.293,0,0,0.2835,0.2848,0.2849,0.2853,0.2864,0.2869,0.2875,0.2883,0.2886,0.2893,0.2898,0.2907,0.2909,0.2915,0.292,0.2922,0.2922,0.2924,0.2925,0.2923,0.2925,0.2923,0.2923,0.2924,0.2924,0.2924,0.2924,0,0.2838,0.2848,0.2854,0.2862,0.2868,0.2873,0.2878,0.2885,0.289,0.2895,0.29,0.2907,0.291,0.2913,0.2915,0.2921,0.2922,0.2921,0.2928,0.2928,0.2925,0.2923,0.292,0.292,0.2924,0.2924,0.2924,0,0.2843,0.2849,0.2857,0.2865,0.2868,0.2872,0.2879,0.2884,0.2891,0.2894,0.2899,0.2904,0.2909,0.2911,0.2918,0.2917,0.292,0.2923,0.2923,0.2924,0.2926,0.2923,0.292,0.292,0.2924,0.2924,0.2924,0,0.284,0.2851,0.2857,0.286,0.287,0.2872,0.2877,0.2884,0.2887,0.2893,0.2896,0.2902,0.2906,0.2911,0.2917,0.2918,0.2923,0.2925,0.2925,0.2925,0.2926,0.2926,0.2923,0.2928,0.2928,0.2928,0.2928,0,0.2842,0.2847,0.2855,0.2859,0.2864,0.287,0.2875,0.2879,0.2885,0.2889,0.2895,0.2898,0.2906,0.291,0.2915,0.2919,0.2921,0.2924,0.2925,0.2923,0.2922,0.2925,0.2925,0.2928,0.2928,0.2928,0.2928,0,0.2841,0.2847,0.2853,0.2861,0.2863,0.2866,0.2873,0.2877,0.2881,0.2886,0.2888,0.2895,0.29,0.2907,0.2914,0.2917,0.2921,0.2923,0.2918,0.2919,0.2918,0.2918,0.2917,0.2916,0.2922,0.2922,0.2922,0,0.2841,0.2845,0.2853,0.2856,0.286,0.2865,0.2868,0.2874,0.2878,0.2885,0.2887,0.2892,0.2897,0.2905,0.2911,0.2916,0.2918,0.2917,0.2919,0.2917,0.2917,0.2917,0.2917,0.2917,0.2917,0.2917,0.2917,0,0.2842,0.2844,0.2849,0.2855,0.2859,0.2863,0.2868,0.287,0.2877,0.2881,0.2886,0.2889,0.2896,0.2901,0.2907,0.2911,0.2915,0.2916,0.2916,0.2914,0.2911,0.2912,0.2917,0.2916,0.2916,0.2916,0.2916,0.2916,0.2841,0.2844,0.285,0.2854,0.2858,0.2862,0.2865,0.287,0.2874,0.288,0.2883,0.2888,0.2893,0.2901,0.2905,0.2908,0.291,0.291,0.291,0.291,0.2909,0.291,0.291,0.291,0.291,0.291,0.291,0,0.2841,0.2845,0.2849,0.2855,0.2859,0.2861,0.2866,0.2869,0.2873,0.2878,0.2882,0.2887,0.2891,0.2897,0.2902,0.2903,0.2905,0.2904,0.2904,0.2904,0.2908,0.2907,0.2903,0.2903,0.2903,0.2903,0.2903,0.2903,0.2842,0.2846,0.2849,0.2855,0.2858,0.2862,0.2865,0.2868,0.2872,0.2877,0.2881,0.2884,0.2889,0.2893,0.2897,0.2899,0.29,0.2899,0.29,0.2904,0.2904,0.2905,0.2904,0.2899,0.2899,0.2896,0.2896,0.2896]}]]